De Ridder, LA

3:50 PM CDT on August 18, 2017 (GMT -0500)
Beauregard Parish

Weather History for KDRI - March, 2013

Change the Weather History Date:

Thursday, March 7, 2013

  Actual Average (KPOE) Record (KPOE)
Temperature  
Mean Temperature 50 °F -  
Max Temperature 64 °F 65 °F 79 °F (2009)
Min Temperature 37 °F 44 °F 28 °F (2015)
Degree Days  
Heating Degree Days 14    
Moisture  
Dew Point 30 °F    
Average Humidity 49    
Maximum Humidity 81    
Minimum Humidity 22    
Precipitation  
Precipitation 0.00 in - - ()
Sea Level Pressure  
Sea Level Pressure 30.29 in    
Wind  
Wind Speed 2 mph (ESE)    
Max Wind Speed 8 mph    
Max Gust Speed -    
Visibility 10 miles    
Events      
Averages and records for this station are not official NWS values.
T = Trace of Precipitation, MM = Missing Value Source: NWS Daily Summary

Daily Weather History Graph

Daily Weather History Graph

Search for Another Location

Airport or City:

Trip Planner

Search our weather history database for the weather conditions in past years. The results will help you decide how hot, cold, wet, or windy it might be!

Date:

Astronomy

Mar. 07, 2013 Rise Set
Actual Time 6:32 AM CST 6:16 PM CST
Civil Twilight 6:08 AM CST 6:40 PM CST
Nautical Twilight 5:40 AM CST 7:08 PM CST
Astronomical Twilight 5:12 AM CST 7:36 PM CST
Moon 3:18 AM CST (3/7) 2:18 PM CST (3/7)
Length of Visible Light 12h 31m
Length of Day
11h 43m
Waning Crescent, 20% of the Moon is Illuminated
Mar 7
Waning Crescent
Mar 11
New
Mar 19
First Quarter
Mar 27
Full
Apr 2
Last Quarter

Hourly Weather History & Observations

Time (CST) Temp. Windchill Dew Point Humidity Pressure Visibility Wind Dir Wind Speed Gust Speed Precip Events Conditions
12:15 AM 44.6 °F 42.2 °F 30.2 °F 57% 30.27 in 10.0 mi East 4.6 mph - N/A   Clear
12:35 AM 44.6 °F - 30.2 °F 57% 30.28 in 10.0 mi Calm Calm - N/A   Clear
12:55 AM 44.6 °F - 30.2 °F 57% 30.29 in 10.0 mi Calm Calm - N/A   Scattered Clouds
1:15 AM 42.8 °F - 30.2 °F 61% 30.28 in 10.0 mi Calm Calm - N/A   Scattered Clouds
1:35 AM 42.8 °F - 30.2 °F 61% 30.27 in 10.0 mi Calm Calm - N/A   Scattered Clouds
1:55 AM 42.8 °F - 30.2 °F 61% 30.28 in 10.0 mi Calm Calm - N/A   Scattered Clouds
2:15 AM 42.8 °F - 30.2 °F 61% 30.30 in 10.0 mi Calm Calm - N/A   Scattered Clouds
3:15 AM 41.0 °F - 30.2 °F 65% 30.27 in 10.0 mi Calm Calm - N/A   Scattered Clouds
3:35 AM 41.0 °F - 30.2 °F 65% 30.27 in 10.0 mi Calm Calm - N/A   Scattered Clouds
3:55 AM 41.0 °F - 30.2 °F 65% 30.27 in 10.0 mi Calm Calm - N/A   Scattered Clouds
4:15 AM 39.2 °F - 30.2 °F 70% 30.27 in 10.0 mi Calm Calm - N/A   Scattered Clouds
4:35 AM 39.2 °F - 30.2 °F 70% 30.27 in 10.0 mi Calm Calm - N/A   Scattered Clouds
4:55 AM 39.2 °F 37.0 °F 30.2 °F 70% 30.28 in 10.0 mi East 3.5 mph - N/A   Scattered Clouds
5:15 AM 37.4 °F 34.9 °F 30.2 °F 75% 30.28 in 10.0 mi East 3.5 mph - N/A   Scattered Clouds
5:35 AM 37.4 °F 34.9 °F 30.2 °F 75% 30.28 in 10.0 mi East 3.5 mph - N/A   Scattered Clouds
5:55 AM 37.4 °F 33.8 °F 30.2 °F 75% 30.28 in 10.0 mi East 4.6 mph - N/A   Scattered Clouds
6:15 AM 37.4 °F 34.9 °F 30.2 °F 75% 30.30 in 10.0 mi East 3.5 mph - N/A   Scattered Clouds
6:35 AM 37.4 °F 34.9 °F 30.2 °F 75% 30.31 in 10.0 mi East 3.5 mph - N/A   Scattered Clouds
6:55 AM 37.4 °F 34.9 °F 30.2 °F 75% 30.31 in 10.0 mi East 3.5 mph - N/A   Scattered Clouds
7:15 AM 39.2 °F 35.9 °F 30.2 °F 70% 30.32 in 10.0 mi ENE 4.6 mph - N/A   Scattered Clouds
7:35 AM 41.0 °F 38.0 °F 30.2 °F 65% 30.34 in 10.0 mi East 4.6 mph - N/A   Scattered Clouds
7:55 AM 42.8 °F 40.1 °F 30.2 °F 61% 30.33 in 10.0 mi ENE 4.6 mph - N/A   Scattered Clouds
8:35 AM 46.4 °F 45.2 °F 30.2 °F 53% 30.35 in 10.0 mi East 3.5 mph - N/A   Scattered Clouds
8:55 AM 48.2 °F - 28.4 °F 46% 30.35 in 10.0 mi ESE 6.9 mph - N/A   Scattered Clouds
9:15 AM 50.0 °F - 28.4 °F 43% 30.35 in 10.0 mi East 8.1 mph - N/A   Scattered Clouds
9:35 AM 51.8 °F - 28.4 °F 41% 30.35 in 10.0 mi East 6.9 mph - N/A   Scattered Clouds
9:55 AM 53.6 °F - 30.2 °F 41% 30.35 in 10.0 mi ENE 6.9 mph - N/A   Scattered Clouds
10:35 AM 55.4 °F - 26.6 °F 33% 30.35 in 10.0 mi ESE 4.6 mph - N/A   Scattered Clouds
10:55 AM 57.2 °F - 26.6 °F 31% 30.35 in 10.0 mi SE 5.8 mph - N/A   Scattered Clouds
11:15 AM 57.2 °F - 26.6 °F 31% 30.35 in 10.0 mi SE 4.6 mph - N/A   Scattered Clouds
11:35 AM 59.0 °F - 28.4 °F 31% 30.34 in 10.0 mi Calm Calm - N/A   Scattered Clouds
11:55 AM 59.0 °F - 28.4 °F 31% 30.33 in 10.0 mi South 3.5 mph - N/A   Scattered Clouds
12:15 PM 59.0 °F - 26.6 °F 29% 30.32 in 10.0 mi South 4.6 mph - N/A   Scattered Clouds
12:35 PM 60.8 °F - 24.8 °F 25% 30.32 in 10.0 mi East 4.6 mph - N/A   Scattered Clouds
12:55 PM 60.8 °F - 23.0 °F 23% 30.30 in 10.0 mi Calm Calm - N/A   Scattered Clouds
1:15 PM 60.8 °F - 26.6 °F 27% 30.29 in 10.0 mi East 4.6 mph - N/A   Scattered Clouds
1:35 PM 60.8 °F - 26.6 °F 27% 30.28 in 10.0 mi Calm Calm - N/A   Scattered Clouds
1:55 PM 60.8 °F - 24.8 °F 25% 30.27 in 10.0 mi ESE 4.6 mph - N/A   Scattered Clouds
2:15 PM 60.8 °F - 26.6 °F 27% 30.27 in 10.0 mi SSE 4.6 mph - N/A   Scattered Clouds
2:35 PM 60.8 °F - 26.6 °F 27% 30.27 in 10.0 mi SE 4.6 mph - N/A   Scattered Clouds
2:55 PM 60.8 °F - 26.6 °F 27% 30.26 in 10.0 mi East 4.6 mph - N/A   Scattered Clouds
3:15 PM 62.6 °F - 24.8 °F 24% 30.26 in 10.0 mi Calm Calm - N/A   Scattered Clouds
3:35 PM 62.6 °F - 26.6 °F 26% 30.25 in 10.0 mi Calm Calm - N/A   Scattered Clouds
3:55 PM 62.6 °F - 26.6 °F 26% 30.25 in 10.0 mi East 4.6 mph - N/A   Scattered Clouds
4:15 PM 64.4 °F - 24.8 °F 22% 30.25 in 10.0 mi Calm Calm - N/A   Scattered Clouds
4:55 PM 64.4 °F - 28.4 °F 26% 30.23 in 10.0 mi ESE 4.6 mph - N/A   Scattered Clouds
5:15 PM 62.6 °F - 28.4 °F 27% 30.24 in 10.0 mi SE 4.6 mph - N/A   Scattered Clouds
5:35 PM 62.6 °F - 28.4 °F 27% 30.24 in 10.0 mi ESE 3.5 mph - N/A   Scattered Clouds
5:55 PM 60.8 °F - 30.2 °F 31% 30.23 in 10.0 mi East 3.5 mph - N/A   Scattered Clouds
7:35 PM 53.6 °F - 32.0 °F 44% 30.25 in 7.0 mi SE 3.5 mph - N/A   Scattered Clouds
7:55 PM 53.6 °F - 32.0 °F 44% 30.25 in 10.0 mi SSE 3.5 mph - N/A   Scattered Clouds
8:15 PM 53.6 °F - 32.0 °F 44% 30.25 in 10.0 mi SE 3.5 mph - N/A   Scattered Clouds
8:35 PM 51.8 °F - 33.8 °F 50% 30.25 in 10.0 mi Calm Calm - N/A   Scattered Clouds
8:55 PM 51.8 °F - 32.0 °F 47% 30.25 in 10.0 mi ESE 3.5 mph - N/A   Scattered Clouds
9:15 PM 48.2 °F - 33.8 °F 58% 30.26 in 7.0 mi Calm Calm - N/A   Scattered Clouds
9:35 PM 50.0 °F - 33.8 °F 54% 30.27 in 10.0 mi Calm Calm - N/A   Scattered Clouds
10:15 PM 46.4 °F - 35.6 °F 66% 30.27 in 10.0 mi Calm Calm - N/A   Scattered Clouds
10:35 PM 44.6 °F - 33.8 °F 66% 30.26 in 10.0 mi Calm Calm - N/A   Scattered Clouds
10:55 PM 44.6 °F - 33.8 °F 66% 30.26 in 10.0 mi Calm Calm - N/A   Scattered Clouds
11:35 PM 42.8 °F - 35.6 °F 76% 30.25 in 10.0 mi Calm Calm - N/A   Scattered Clouds
11:55 PM 41.0 °F - 35.6 °F 81% 30.25 in 10.0 mi Calm Calm - N/A   Scattered Clouds